| time (UTC) | temp F | wind direction | speed MPH | gust MPH | rain 1hr in | rain 24hr in | rain mn in | humidity % | barometer mb |
| 20260905062325 | 63 | 0 | 0.0 | 1.0 | 0.00 | 0.01 | 0.01 | 69 | 1012.7 |
| 20260905061425 | 63 | 0 | 0.0 | 2.0 | 0.00 | 0.01 | 0.01 | 69 | 1012.7 |
| 20260905060525 | 64 | 0 | 0.0 | 1.0 | 0.00 | 0.01 | 0.01 | 69 | 1012.8 |
| 20260905055625 | 64 | 0 | 0.0 | 1.0 | 0.00 | 0.01 | 0.01 | 68 | 1012.7 |
| 20260905054725 | 64 | 0 | 0.0 | 0.0 | 0.00 | 0.01 | 0.01 | 67 | 1012.8 |
| 20260905053825 | 64 | 0 | 0.0 | 0.0 | 0.00 | 0.01 | 0.01 | 67 | 1012.8 |
| 20260905052925 | 65 | 0 | 0.0 | 0.0 | 0.00 | 0.01 | 0.01 | 68 | 1012.8 |
| 20260905052025 | 65 | 0 | 0.0 | 0.0 | 0.00 | 0.01 | 0.01 | 68 | 1012.9 |
| 20260905051125 | 66 | 0 | 0.0 | 0.0 | 0.00 | 0.01 | 0.01 | 65 | 1012.9 |
| 20260905050225 | 66 | 0 | 0.0 | 1.0 | 0.00 | 0.01 | 0.01 | 64 | 1013.0 |
| 20260905045325 | 67 | 0 | 0.0 | 1.0 | 0.00 | 0.01 | 0.01 | 63 | 1013.0 |
| 20260905044425 | 67 | 0 | 0.0 | 2.0 | 0.00 | 0.01 | 0.01 | 63 | 1012.9 |
| 20260905043525 | 68 | 0 | 0.0 | 2.0 | 0.00 | 0.01 | 0.01 | 62 | 1012.9 |
| 20260905042625 | 68 | 0 | 0.0 | 2.0 | 0.00 | 0.01 | 0.01 | 63 | 1012.8 |
| 20260905041725 | 68 | 199 | 0.0 | 1.0 | 0.00 | 0.01 | 0.01 | 61 | 1012.7 |
| 20260905040825 | 69 | 201 | 1.0 | 3.0 | 0.00 | 0.01 | 0.01 | 61 | 1012.6 |
| 20260905035925 | 69 | 216 | 1.0 | 5.0 | 0.00 | 0.01 | 0.01 | 60 | 1012.5 |
| 20260905034125 | 70 | 225 | 2.0 | 5.0 | 0.00 | 0.01 | 0.01 | 59 | 1012.4 |
| 20260905033225 | 70 | 214 | 2.0 | 7.0 | 0.00 | 0.01 | 0.01 | 58 | 1012.3 |
| 20260905032325 | 70 | 210 | 0.0 | 7.0 | 0.00 | 0.01 | 0.01 | 54 | 1012.2 |
| 20260905031425 | 70 | 0 | 0.0 | 0.0 | 0.00 | 0.01 | 0.01 | 48 | 1012.0 |
| 20260905030525 | 71 | 0 | 0.0 | 0.0 | 0.00 | 0.01 | 0.01 | 45 | 1012.1 |
| 20260905024725 | 72 | 0 | 0.0 | 1.0 | 0.00 | 0.01 | 0.01 | 42 | 1011.9 |
| 20260905023825 | 73 | 0 | 0.0 | 2.0 | 0.00 | 0.01 | 0.01 | 40 | 1011.8 |
| 20260905022925 | 74 | 0 | 0.0 | 1.0 | 0.00 | 0.01 | 0.01 | 41 | 1011.8 |
| 20260905022025 | 74 | 0 | 0.0 | 3.0 | 0.00 | 0.01 | 0.01 | 40 | 1011.8 |
| 20260905021125 | 75 | 179 | 0.0 | 2.0 | 0.00 | 0.01 | 0.01 | 42 | 1011.8 |
| 20260905020225 | 75 | 154 | 1.0 | 3.0 | 0.00 | 0.01 | 0.01 | 42 | 1011.8 |
| 20260905013525 | 77 | 219 | 1.0 | 4.0 | 0.00 | 0.01 | 0.01 | 44 | 1011.8 |
| 20260905012625 | 77 | 219 | 1.0 | 4.0 | 0.00 | 0.01 | 0.01 | 45 | 1011.7 |
| 20260905011725 | 77 | 220 | 1.0 | 3.0 | 0.00 | 0.01 | 0.01 | 45 | 1011.6 |
| 20260905010825 | 77 | 203 | 1.0 | 5.0 | 0.00 | 0.01 | 0.01 | 45 | 1011.7 |
| 20260905005925 | 77 | 111 | 1.0 | 5.0 | 0.00 | 0.01 | 0.01 | 46 | 1011.6 |
| 20260905004125 | 77 | 55 | 1.0 | 3.0 | 0.00 | 0.01 | 0.01 | 46 | 1011.6 |
| 20260905003225 | 79 | 139 | 0.0 | 2.0 | 0.00 | 0.01 | 0.01 | 45 | 1011.6 |
| 20260905002326 | 79 | 210 | 1.0 | 3.0 | 0.00 | 0.01 | 0.01 | 45 | 1011.6 |
| 20260905001425 | 80 | 210 | 1.0 | 4.0 | 0.00 | 0.01 | 0.01 | 44 | 1011.6 |
| 20260905000525 | 80 | 207 | 1.0 | 3.0 | 0.00 | 0.01 | 0.01 | 44 | 1011.8 |
| 20260904235625 | 79 | 229 | 0.0 | 2.0 | 0.00 | 0.01 | 0.01 | 45 | 1011.7 |
| 20260904234725 | 79 | 251 | 1.0 | 3.0 | 0.00 | 0.01 | 0.01 | 48 | 1011.8 |
| 20260904233825 | 78 | 349 | 2.0 | 5.0 | 0.00 | 0.01 | 0.01 | 49 | 1011.9 |
| 20260904232926 | 78 | 300 | 2.0 | 5.0 | 0.00 | 0.01 | 0.01 | 47 | 1012.0 |
| 20260904232025 | 78 | 324 | 2.0 | 5.0 | 0.00 | 0.01 | 0.01 | 47 | 1012.0 |
| 20260904231125 | 79 | 260 | 1.0 | 5.0 | 0.00 | 0.01 | 0.01 | 47 | 1012.2 |
| 20260904230225 | 80 | 220 | 1.0 | 5.0 | 0.00 | 0.01 | 0.01 | 45 | 1012.3 |
| 20260904225326 | 79 | 194 | 1.0 | 4.0 | 0.00 | 0.01 | 0.01 | 47 | 1012.3 |
| 20260904224425 | 78 | 70 | 1.0 | 3.0 | 0.00 | 0.01 | 0.01 | 46 | 1012.4 |
| 20260904223525 | 80 | 220 | 2.0 | 5.0 | 0.00 | 0.01 | 0.01 | 43 | 1012.5 |
| 20260904222626 | 80 | 231 | 1.0 | 5.0 | 0.00 | 0.01 | 0.01 | 46 | 1012.5 |
| 20260904221725 | 80 | 205 | 2.0 | 5.0 | 0.00 | 0.01 | 0.01 | 46 | 1012.5 |
| 20260904220825 | 80 | 227 | 1.0 | 6.0 | 0.00 | 0.01 | 0.01 | 46 | 1012.5 |
| 20260904215925 | 79 | 236 | 1.0 | 3.0 | 0.00 | 0.01 | 0.01 | 46 | 1012.6 |
| 20260904215025 | 79 | 248 | 1.0 | 4.0 | 0.00 | 0.01 | 0.01 | 47 | 1012.6 |
| 20260904214125 | 77 | 132 | 2.0 | 4.0 | 0.00 | 0.01 | 0.01 | 50 | 1012.5 |
| 20260904213225 | 76 | 105 | 1.0 | 4.0 | 0.00 | 0.01 | 0.01 | 50 | 1012.4 |
| 20260904212325 | 76 | 85 | 1.0 | 5.0 | 0.00 | 0.01 | 0.01 | 51 | 1012.7 |
| 20260904211425 | 76 | 190 | 2.0 | 6.0 | 0.00 | 0.01 | 0.01 | 50 | 1012.6 |
| 20260904205625 | 78 | 166 | 1.0 | 5.0 | 0.00 | 0.01 | 0.01 | 49 | 1012.7 |
| 20260904204725 | 76 | 82 | 2.0 | 4.0 | 0.00 | 0.01 | 0.01 | 48 | 1012.8 |
| 20260904203825 | 76 | 103 | 1.0 | 5.0 | 0.00 | 0.01 | 0.01 | 50 | 1012.7 |
| 20260904202925 | 77 | 228 | 2.0 | 4.0 | 0.00 | 0.01 | 0.01 | 50 | 1012.7 |
| 20260904202025 | 77 | 174 | 1.0 | 4.0 | 0.00 | 0.01 | 0.01 | 53 | 1012.7 |
| 20260904201125 | 76 | 163 | 1.0 | 5.0 | 0.00 | 0.01 | 0.01 | 54 | 1012.8 |
| 20260904200225 | 76 | 224 | 3.0 | 5.0 | 0.00 | 0.01 | 0.01 | 54 | 1012.9 |
| 20260904195325 | 76 | 218 | 2.0 | 5.0 | 0.00 | 0.01 | 0.01 | 56 | 1012.9 |
| 20260904194425 | 74 | 201 | 1.0 | 4.0 | 0.00 | 0.01 | 0.01 | 57 | 1013.0 |
| 20260904193525 | 74 | 116 | 2.0 | 5.0 | 0.00 | 0.01 | 0.01 | 58 | 1013.1 |
| 20260904192625 | 74 | 93 | 1.0 | 5.0 | 0.00 | 0.01 | 0.01 | 60 | 1013.1 |
| 20260904191725 | 73 | 194 | 1.0 | 4.0 | 0.00 | 0.01 | 0.01 | 62 | 1013.2 |
| 20260904190826 | 72 | 92 | 1.0 | 4.0 | 0.00 | 0.01 | 0.01 | 62 | 1013.2 |
| 20260904185925 | 73 | 169 | 1.0 | 4.0 | 0.00 | 0.01 | 0.01 | 61 | 1013.2 |
| 20260904185026 | 73 | 106 | 1.0 | 4.0 | 0.00 | 0.01 | 0.01 | 63 | 1013.2 |
| 20260904183225 | 71 | 217 | 2.0 | 5.0 | 0.00 | 0.01 | 0.01 | 66 | 1013.2 |
| 20260904182325 | 70 | 223 | 2.0 | 5.0 | 0.00 | 0.01 | 0.01 | 68 | 1013.2 |
| 20260904180525 | 70 | 106 | 1.0 | 4.0 | 0.00 | 0.01 | 0.01 | 68 | 1013.3 |
| 20260904175625 | 70 | 149 | 1.0 | 4.0 | 0.00 | 0.01 | 0.01 | 68 | 1013.3 |
| 20260904174725 | 69 | 116 | 1.0 | 5.0 | 0.00 | 0.01 | 0.01 | 71 | 1013.4 |
| 20260904173825 | 68 | 126 | 2.0 | 4.0 | 0.00 | 0.01 | 0.01 | 72 | 1013.3 |
| 20260904172925 | 69 | 125 | 1.0 | 8.0 | 0.00 | 0.01 | 0.01 | 72 | 1013.3 |
| 20260904172025 | 68 | 156 | 1.0 | 4.0 | 0.00 | 0.01 | 0.01 | 74 | 1013.2 |
| 20260904170225 | 68 | 145 | 1.0 | 6.0 | 0.00 | 0.01 | 0.01 | 74 | 1013.2 |
| 20260904165325 | 68 | 125 | 1.0 | 3.0 | 0.00 | 0.01 | 0.01 | 75 | 1013.1 |
| 20260904164425 | 67 | 115 | 1.0 | 5.0 | 0.00 | 0.01 | 0.01 | 75 | 1013.1 |
| 20260904163525 | 66 | 149 | 1.0 | 3.0 | 0.00 | 0.01 | 0.01 | 77 | 1013.0 |
| 20260904161725 | 66 | 118 | 1.0 | 4.0 | 0.00 | 0.01 | 0.01 | 78 | 1013.0 |
| 20260904160825 | 65 | 111 | 1.0 | 4.0 | 0.00 | 0.01 | 0.01 | 79 | 1013.1 |
| 20260904155025 | 65 | 142 | 0.0 | 3.0 | 0.00 | 0.01 | 0.01 | 80 | 1013.0 |
| 20260904154125 | 64 | 116 | 1.0 | 3.0 | 0.00 | 0.01 | 0.01 | 83 | 1012.9 |
| 20260904153225 | 63 | 105 | 1.0 | 3.0 | 0.00 | 0.01 | 0.01 | 84 | 1012.8 |
| 20260904152325 | 62 | 106 | 1.0 | 5.0 | 0.00 | 0.01 | 0.01 | 86 | 1012.7 |
| 20260904151425 | 60 | 103 | 0.0 | 3.0 | 0.00 | 0.01 | 0.01 | 89 | 1012.7 |
| 20260904150525 | 60 | 0 | 0.0 | 2.0 | 0.00 | 0.01 | 0.01 | 90 | 1012.6 |
| 20260904145625 | 60 | 0 | 0.0 | 1.0 | 0.00 | 0.01 | 0.01 | 90 | 1012.6 |
| 20260904144725 | 60 | 0 | 0.0 | 0.0 | 0.00 | 0.01 | 0.01 | 90 | 1012.5 |
| 20260904143826 | 60 | 0 | 0.0 | 0.0 | 0.00 | 0.01 | 0.01 | 90 | 1012.4 |
| 20260904142926 | 60 | 0 | 0.0 | 1.0 | 0.00 | 0.01 | 0.01 | 90 | 1012.4 |
| 20260904141125 | 60 | 0 | 0.0 | 1.0 | 0.00 | 0.01 | 0.01 | 91 | 1012.2 |
| 20260904140225 | 60 | 0 | 0.0 | 1.0 | 0.00 | 0.01 | 0.01 | 91 | 1012.0 |
| 20260904135325 | 60 | 0 | 0.0 | 1.0 | 0.00 | 0.01 | 0.01 | 91 | 1011.8 |
| 20260904134425 | 61 | 0 | 0.0 | 4.0 | 0.00 | 0.01 | 0.01 | 91 | 1011.6 |
| 20260904132625 | 61 | 0 | 0.0 | 2.0 | 0.00 | 0.01 | 0.01 | 91 | 1011.5 |
| 20260904131725 | 61 | 0 | 0.0 | 3.0 | 0.00 | 0.01 | 0.01 | 91 | 1011.3 |
| 20260904130826 | 61 | 0 | 0.0 | 2.0 | 0.00 | 0.01 | 0.01 | 91 | 1011.3 |
| 20260904125925 | 61 | 0 | 0.0 | 1.0 | 0.00 | 0.01 | 0.01 | 91 | 1011.3 |
| 20260904125025 | 62 | 0 | 0.0 | 2.0 | 0.00 | 0.01 | 0.01 | 91 | 1011.1 |
| 20260904124125 | 62 | 0 | 0.0 | 1.0 | 0.00 | 0.01 | 0.01 | 91 | 1010.9 |
| 20260904123225 | 62 | 0 | 0.0 | 2.0 | 0.00 | 0.01 | 0.01 | 91 | 1010.9 |
| 20260904122325 | 62 | 0 | 0.0 | 3.0 | 0.00 | 0.01 | 0.01 | 91 | 1010.8 |
| 20260904121425 | 62 | 0 | 0.0 | 3.0 | 0.00 | 0.01 | 0.01 | 91 | 1010.8 |
| 20260904120525 | 62 | 0 | 0.0 | 2.0 | 0.00 | 0.01 | 0.01 | 91 | 1010.8 |
| 20260904115625 | 62 | 0 | 0.0 | 3.0 | 0.00 | 0.01 | 0.01 | 91 | 1010.7 |
| 20260904114725 | 62 | 0 | 0.0 | 1.0 | 0.00 | 0.01 | 0.01 | 91 | 1010.6 |
| 20260904113825 | 62 | 0 | 0.0 | 2.0 | 0.00 | 0.01 | 0.01 | 91 | 1010.7 |
| 20260904112925 | 62 | 0 | 0.0 | 3.0 | 0.00 | 0.01 | 0.01 | 91 | 1010.6 |
| 20260904112025 | 62 | 0 | 0.0 | 2.0 | 0.00 | 0.01 | 0.01 | 91 | 1010.6 |
| 20260904110225 | 62 | 0 | 0.0 | 1.0 | 0.00 | 0.01 | 0.01 | 91 | 1010.6 |
| 20260904105326 | 62 | 0 | 0.0 | 2.0 | 0.00 | 0.01 | 0.01 | 91 | 1010.7 |
| 20260904103525 | 62 | 0 | 0.0 | 1.0 | 0.00 | 0.01 | 0.01 | 91 | 1010.6 |
| 20260904102626 | 62 | 0 | 0.0 | 0.0 | 0.00 | 0.01 | 0.01 | 91 | 1010.5 |
| 20260904100825 | 62 | 0 | 0.0 | 1.0 | 0.00 | 0.01 | 0.01 | 91 | 1010.5 |
| 20260904095925 | 62 | 0 | 0.0 | 1.0 | 0.00 | 0.01 | 0.01 | 91 | 1010.5 |
| 20260904095025 | 62 | 0 | 0.0 | 1.0 | 0.00 | 0.01 | 0.01 | 91 | 1010.4 |
| 20260904094125 | 62 | 0 | 0.0 | 1.0 | 0.00 | 0.01 | 0.01 | 92 | 1010.3 |
| 20260904092325 | 62 | 0 | 0.0 | 1.0 | 0.00 | 0.01 | 0.01 | 92 | 1010.4 |
| 20260904090525 | 63 | 0 | 0.0 | 2.0 | 0.00 | 0.01 | 0.01 | 92 | 1010.5 |
| 20260904085625 | 63 | 0 | 0.0 | 2.0 | 0.00 | 0.01 | 0.01 | 92 | 1010.5 |
| 20260904084725 | 63 | 0 | 0.0 | 3.0 | 0.00 | 0.01 | 0.01 | 92 | 1010.5 |
| 20260904083825 | 63 | 0 | 0.0 | 1.0 | 0.00 | 0.01 | 0.01 | 92 | 1010.6 |
| 20260904082025 | 63 | 0 | 0.0 | 1.0 | 0.01 | 0.01 | 0.01 | 92 | 1010.6 |
| 20260904081126 | 63 | 0 | 0.0 | 1.0 | 0.01 | 0.01 | 0.01 | 91 | 1010.6 |
| 20260904080225 | 63 | 0 | 0.0 | 1.0 | 0.01 | 0.01 | 0.01 | 91 | 1010.6 |
| 20260904075325 | 63 | 129 | 1.0 | 2.0 | 0.01 | 0.01 | 0.01 | 91 | 1010.6 |
| 20260904073525 | 64 | 96 | 1.0 | 5.0 | 0.01 | 0.01 | 0.01 | 89 | 1010.4 |
| 20260904072625 | 65 | 123 | 1.0 | 2.0 | 0.00 | 0.00 | 0.00 | 88 | 1010.5 |
| 20260904071725 | 65 | 0 | 0.0 | 3.0 | 0.00 | 0.00 | 0.00 | 87 | 1010.5 |
| 20260904070825 | 65 | 0 | 0.0 | 0.0 | 0.00 | 0.00 | 0.00 | 87 | 1010.6 |
| 20260904065925 | 65 | 0 | 0.0 | 0.0 | 0.00 | 0.00 | 0.00 | 86 | 1010.5 |
| 20260904064125 | 65 | 0 | 0.0 | 0.0 | 0.00 | 0.00 | 0.00 | 86 | 1010.6 |
| 20260904063225 | 65 | 0 | 0.0 | 0.0 | 0.00 | 0.00 | 0.00 | 86 | 1010.5 |